Location: La Fredeussais
(48.1780°N, 1.3980°W)
Time: 07:40:27
(UTC+00:00)

ITUPSAT 1 - Pass Details

Date: 31 October 2021
Orbit: 701 x 712 km, 98.6° (Epoch: 01 December)

Event Time Altitude Azimuth Distance (km) Brightness Sun altitude
Rises 05:11:58 0° 114° (ESE) 3,084 ? -16.7°
Reaches altitude 10° 05:15:00 10° 94° (E) 2,171 ? -16.2°
Maximum altitude 05:17:49 16° 57° (ENE) 1,803 ? -15.7°
Drops below altitude 10° 05:20:39 10° 20° (NNE) 2,179 ? -15.2°
Sets 05:23:42 0° 360° (N) 3,103 ? -14.7°
